一网星座-0339星 (ONEWEB-0339 )

导读 | 星芒AI

ONEWEB-0339 是 OneWeb 卫星星座计划中的一颗低轨通信卫星,旨在为全球提供高速互联网服务。该卫星采用标准化设计,具备高容量和高效能,支持偏远和农村地区的网络接入。作为 OneWeb 扩展其全球覆盖计划的一部分,ONEWEB-0339 于近期成功发射并部署至预定轨道,进一步增强了其卫星通信网络的稳定性和服务能力。

基本信息
目录编号:
49205
目录名称:
ONEWEB-0339
国际标识:
2021-083V
轨道中心:
EARTH
卫星名称:
一网星座-0339星
卫星全名:
一网星座-0339星 (ONEWEB-0339 )
卫星状态:
在轨 (已飞行1553 天)
发射日期:
2021-09-14 UTC
国别 :
英国 (GB)
星等 :
--
轨道信息
数据来源 国际轨道数据
星历时间: 2025-12-15T06:15:36+0800
20小时前
查看轨道信息
半长轴: 7587.898km
偏心率: 0.0001676
轨道倾角: 87.898°
近地点辐角 85.942°
升交点赤经 356.855°
平近点角 274.190°
近地点: 1208.491km
远地点: 1211.035km
周期: 109.633分钟
每日圈数: 13.134714
详细信息
平衡模式:
三轴稳定
覆盖范围:
全球
运营商:
一网卫星公司
运营商所在国:
英国
制造商(研发单位):
一网卫星公司
制造商所在国:
英国
使用方式:
暂无
卫星简介
OneWeb卫星网络由648颗重约125公斤的微型卫星组成,运行在1200公里的轨道上。 每颗卫星都能够提供至少每秒8千兆位的吞吐量,以使用其高吞吐量的Ku频段有效载荷为家庭和移动平台提供互联网接入。该卫星仍在工作。
2D轨道图
3D轨道图
轨道高度分析图
轨道倾角分析图
轨道综合分析图
查看轨道综合分析图